TimeEDT,TemperatureF,Dew PointF,Humidity,Sea Level PressureIn,VisibilityMPH,Wind Direction,Wind SpeedMPH,Gust SpeedMPH,PrecipitationIn,Events,Conditions,WindDirDegrees,DateUTC
12:15 AM,74.3,69.4,85,30.22,10.0,SSW,6.9,-,N/A,,Clear,210,2013-05-31 04:15:00
12:35 AM,73.8,69.8,87,30.22,10.0,SSW,5.8,-,N/A,,Clear,210,2013-05-31 04:35:00
12:55 AM,73.8,69.8,87,30.22,10.0,SSW,6.9,-,N/A,,Clear,210,2013-05-31 04:55:00
1:15 AM,73.4,69.6,88,30.22,10.0,SSW,5.8,-,N/A,,Clear,210,2013-05-31 05:15:00
1:35 AM,73.4,69.8,88,30.22,10.0,SW,5.8,-,N/A,,Scattered Clouds,230,2013-05-31 05:35:00
1:55 AM,72.9,69.4,89,30.22,10.0,SW,6.9,-,N/A,,Scattered Clouds,220,2013-05-31 05:55:00
2:15 AM,72.9,69.4,89,30.21,10.0,SW,5.8,-,N/A,,Clear,230,2013-05-31 06:15:00
2:35 AM,72.7,69.4,90,30.21,10.0,SW,5.8,-,N/A,,Clear,220,2013-05-31 06:35:00
2:55 AM,72.7,69.4,90,30.21,10.0,SW,6.9,-,N/A,,Clear,230,2013-05-31 06:55:00
3:15 AM,72.5,69.6,91,30.21,10.0,SW,5.8,-,N/A,,Clear,230,2013-05-31 07:15:00
3:35 AM,72.3,69.6,91,30.21,10.0,SW,6.9,-,N/A,,Clear,230,2013-05-31 07:35:00
3:55 AM,72.1,69.4,91,30.22,10.0,WSW,6.9,-,N/A,,Clear,240,2013-05-31 07:55:00
4:15 AM,72.0,69.4,92,30.22,10.0,WSW,6.9,-,N/A,,Clear,240,2013-05-31 08:15:00
4:35 AM,72.1,69.4,91,30.22,10.0,SW,6.9,-,N/A,,Clear,230,2013-05-31 08:35:00
4:55 AM,72.0,69.3,91,30.23,10.0,WSW,6.9,-,N/A,,Clear,240,2013-05-31 08:55:00
5:15 AM,71.2,69.1,93,30.23,10.0,WSW,5.8,-,N/A,,Clear,240,2013-05-31 09:15:00
5:35 AM,71.2,69.1,93,30.24,10.0,WSW,6.9,-,N/A,,Clear,240,2013-05-31 09:35:00
5:55 AM,71.1,69.1,93,30.25,10.0,WSW,4.6,-,N/A,,Clear,250,2013-05-31 09:55:00
6:15 AM,71.1,69.1,93,30.25,10.0,WSW,3.5,-,N/A,,Clear,250,2013-05-31 10:15:00
6:35 AM,71.6,69.3,92,30.26,10.0,WSW,4.6,-,N/A,,Clear,250,2013-05-31 10:35:00
6:55 AM,72.5,69.8,91,30.26,10.0,West,4.6,-,N/A,,Clear,260,2013-05-31 10:55:00
7:15 AM,73.4,69.8,88,30.26,10.0,West,4.6,-,N/A,,Clear,260,2013-05-31 11:15:00
7:35 AM,73.9,70.0,87,30.26,10.0,WSW,3.5,-,N/A,,Clear,240,2013-05-31 11:35:00
7:55 AM,75.0,70.2,85,30.26,10.0,WSW,4.6,-,N/A,,Clear,250,2013-05-31 11:55:00
8:15 AM,76.1,70.5,83,30.26,10.0,WSW,5.8,-,N/A,,Clear,240,2013-05-31 12:15:00
8:35 AM,77.4,70.9,80,30.26,10.0,WSW,5.8,-,N/A,,Clear,250,2013-05-31 12:35:00
8:55 AM,77.9,70.3,77,30.26,10.0,WSW,4.6,-,N/A,,Clear,250,2013-05-31 12:55:00
9:15 AM,78.8,70.5,76,30.26,10.0,WSW,4.6,-,N/A,,Clear,240,2013-05-31 13:15:00
9:35 AM,80.1,69.4,70,30.25,10.0,SW,4.6,-,N/A,,Clear,230,2013-05-31 13:35:00
9:55 AM,80.6,69.3,68,30.25,10.0,SSW,3.5,-,N/A,,Clear,210,2013-05-31 13:55:00
10:15 AM,81.5,69.1,66,30.24,10.0,SW,3.5,-,N/A,,Clear,230,2013-05-31 14:15:00
10:35 AM,82.2,68.9,64,30.25,10.0,SSW,3.5,-,N/A,,Clear,200,2013-05-31 14:35:00
10:55 AM,82.4,68.5,63,30.25,10.0,SSW,4.6,-,N/A,,Clear,200,2013-05-31 14:55:00
11:15 AM,82.8,68.7,62,30.25,10.0,SSW,5.8,-,N/A,,Clear,210,2013-05-31 15:15:00
11:35 AM,83.1,69.6,64,30.25,10.0,SSW,8.1,-,N/A,,Clear,200,2013-05-31 15:35:00
11:55 AM,83.7,70.5,64,30.24,10.0,SSW,10.4,-,N/A,,Clear,200,2013-05-31 15:55:00
12:15 PM,82.6,70.3,66,30.24,10.0,South,11.5,-,N/A,,Clear,190,2013-05-31 16:15:00
12:35 PM,82.4,70.3,67,30.24,10.0,South,11.5,-,N/A,,Clear,170,2013-05-31 16:35:00
12:55 PM,82.4,70.7,68,30.23,10.0,South,11.5,17.3,N/A,,Clear,180,2013-05-31 16:55:00
1:15 PM,82.9,70.5,66,30.23,10.0,South,12.7,-,N/A,,Clear,180,2013-05-31 17:15:00
1:35 PM,82.4,71.1,68,30.23,10.0,South,12.7,-,N/A,,Clear,170,2013-05-31 17:35:00
1:55 PM,82.0,70.7,68,30.22,10.0,South,13.8,-,N/A,,Clear,170,2013-05-31 17:55:00
2:15 PM,82.2,69.8,66,30.22,10.0,South,15.0,21.9,N/A,,Clear,180,2013-05-31 18:15:00
2:35 PM,82.6,68.9,63,30.21,10.0,South,16.1,20.7,N/A,,Clear,180,2013-05-31 18:35:00
2:55 PM,82.0,70.0,67,30.21,10.0,South,13.8,19.6,N/A,,Clear,180,2013-05-31 18:55:00
3:15 PM,82.4,68.7,63,30.20,10.0,South,15.0,21.9,N/A,,Clear,170,2013-05-31 19:15:00
3:35 PM,82.6,69.1,64,30.19,10.0,South,13.8,19.6,N/A,,Clear,180,2013-05-31 19:35:00
3:55 PM,82.0,70.3,68,30.19,10.0,South,15.0,19.6,N/A,,Clear,180,2013-05-31 19:55:00
4:15 PM,81.7,69.6,67,30.19,10.0,South,16.1,-,N/A,,Clear,180,2013-05-31 20:15:00
4:35 PM,81.5,68.4,64,30.18,10.0,South,13.8,20.7,N/A,,Clear,170,2013-05-31 20:35:00
4:55 PM,81.5,67.6,63,30.18,10.0,South,15.0,-,N/A,,Clear,180,2013-05-31 20:55:00
5:15 PM,81.5,67.6,63,30.17,10.0,South,15.0,-,N/A,,Clear,180,2013-05-31 21:15:00
5:35 PM,81.3,68.2,64,30.17,10.0,South,15.0,-,N/A,,Clear,190,2013-05-31 21:35:00
5:55 PM,80.4,68.5,67,30.17,10.0,South,17.3,-,N/A,,Clear,180,2013-05-31 21:55:00
6:15 PM,79.3,69.3,71,30.16,10.0,South,15.0,-,N/A,,Clear,190,2013-05-31 22:15:00
6:35 PM,79.5,69.1,70,30.16,10.0,South,12.7,19.6,N/A,,Clear,190,2013-05-31 22:35:00
6:55 PM,78.8,69.6,73,30.16,10.0,South,15.0,-,N/A,,Clear,180,2013-05-31 22:55:00
7:15 PM,78.6,70.2,75,30.16,10.0,South,16.1,-,N/A,,Clear,190,2013-05-31 23:15:00
7:35 PM,78.3,69.1,73,30.16,10.0,South,15.0,21.9,N/A,,Clear,190,2013-05-31 23:35:00
7:55 PM,77.9,68.2,72,30.16,10.0,SSW,17.3,-,N/A,,Clear,200,2013-05-31 23:55:00
8:15 PM,77.5,69.1,75,30.16,10.0,SSW,15.0,-,N/A,,Clear,210,2013-06-01 00:15:00
8:35 PM,77.5,69.1,75,30.16,10.0,SSW,15.0,-,N/A,,Clear,210,2013-06-01 00:35:00
8:55 PM,77.0,68.7,75,30.15,10.0,SSW,16.1,-,N/A,,Clear,200,2013-06-01 00:55:00
9:15 PM,76.6,68.9,77,30.16,10.0,SSW,15.0,-,N/A,,Clear,200,2013-06-01 01:15:00
9:35 PM,76.1,69.3,79,30.16,10.0,SSW,16.1,-,N/A,,Clear,200,2013-06-01 01:35:00
9:55 PM,76.1,69.6,80,30.17,10.0,SSW,13.8,-,N/A,,Clear,210,2013-06-01 01:55:00
10:15 PM,75.7,70.0,82,30.17,10.0,SSW,12.7,-,N/A,,Clear,210,2013-06-01 02:15:00
10:35 PM,75.6,69.8,82,30.17,10.0,SSW,13.8,-,N/A,,Clear,210,2013-06-01 02:35:00
10:55 PM,75.6,70.0,83,30.17,10.0,SW,11.5,-,N/A,,Clear,220,2013-06-01 02:55:00
11:15 PM,74.8,69.8,84,30.17,10.0,SW,10.4,-,N/A,,Clear,220,2013-06-01 03:15:00
11:35 PM,74.3,69.8,86,30.17,10.0,SW,8.1,-,N/A,,Clear,220,2013-06-01 03:35:00
11:55 PM,74.1,69.8,86,30.17,10.0,SW,6.9,-,N/A,,Clear,230,2013-06-01 03:55:00